Moses Lake, WA
on Saturday, January 12, 2013

Saturday
Previous Day Next Day
Daily Summary
 ActualAverageRecord
Temperature
Mean Temperature °F 29°F  
Max Temperature 28°F 36°F 54°F (1983)
Min Temperature 15°F 23°F 5°F (2007)
Degree Days
Heating Degree Days 43 36  
Month to date heating degree days 438 438  
Since 1 July heating degree days 2646 3025  
Cooling Degree Days 0 0  
Month to date cooling degree days 0 0  
Year to date cooling degree days 0 0  
Moisture
Dew Point 12°F   
Average Humidity 72    
Maximum Humidity 88    
Minimum Humidity 55    
Precipitation
Precipitation 0.00 in 0.05 in 0.43 in (1980)
Month to date precipitation 0.27 0.60  
Year to date precipitation 0.27 0.60  
Wind
Wind Speed 5 mph   
Max Wind Speed 21 mph   
Max Gust Speed mph   
Visibility 10 miles   
Events     

Key: T is trace of precipitation, MM is missing value
Source: NWS Daily Summary
Time(PST)TemperatureDew PointHumidity Pressure Visibility Wind DirectionWind SpeedGust SpeedPrecipitationEvents Conditions
12:52 AM 17.1°F 12.9°F 84% 30.31 in 10.0 miles North 6.9 mph - N/A   Clear
1:52 AM 17.1°F 12.9°F 84% 30.31 in 10.0 miles Calm Calm - N/A   Clear
2:52 AM 16.0°F 12.0°F 84% 30.32 in 10.0 miles North 3.5 mph - N/A   Clear
3:52 AM 16.0°F 12.0°F 84% 30.31 in 10.0 miles North 5.8 mph - N/A   Clear
4:52 AM 16.0°F 12.0°F 84% 30.32 in 10.0 miles North 5.8 mph - N/A   Clear
5:52 AM 15.8°F 10.4°F 79% 30.27 in 10.0 miles North 5.8 mph - N/A   Clear
6:52 AM 15.1°F 10.9°F 84% 30.35 in 10.0 miles North 6.9 mph - N/A   Partly Cloudy
7:14 AM 15.8°F 12.2°F 86% 30.29 in 9.0 miles North 6.9 mph - N/A   Mostly Cloudy
7:52 AM 16.0°F 12.9°F 88% 30.37 in 5.0 miles North 4.6 mph - N/A   Overcast
8:50 AM 15.8°F 12.2°F 86% 30.31 in 9.0 miles NNE 6.9 mph - N/A   Scattered Clouds
8:52 AM 15.8°F 12.2°F 86% 30.32 in 9.0 miles NNE 6.9 mph - N/A   Partly Cloudy
9:52 AM 19.0°F 14.0°F 81% 30.39 in 10.0 miles NNE 5.8 mph - N/A   Clear
10:52 AM 21.9°F 14.0°F 72% 30.39 in 10.0 miles NNE 8.1 mph - N/A   Clear
11:52 AM 23.0°F 14.0°F 68% 30.38 in 10.0 miles NNW 6.9 mph - N/A   Clear
12:52 PM 26.1°F 14.0°F 60% 30.38 in 10.0 miles NNE 5.8 mph - N/A   Clear
1:52 PM 27.0°F 12.9°F 56% 30.38 in 10.0 miles NNE 5.8 mph - N/A   Clear
2:52 PM 27.0°F 12.9°F 56% 30.39 in 10.0 miles North 6.9 mph - N/A   Clear
3:52 PM 26.1°F 12.9°F 58% 30.40 in 10.0 miles North 3.5 mph - N/A   Clear
4:52 PM 23.0°F 12.9°F 65% 30.40 in 10.0 miles NNE 3.5 mph - N/A   Clear
5:52 PM 19.0°F 12.0°F 74% 30.41 in 10.0 miles North 4.6 mph - N/A   Clear
6:52 PM 19.4°F 12.2°F 74% 30.36 in 10.0 miles NNE 4.6 mph - N/A   Clear
7:52 PM 17.1°F 10.9°F 77% 30.43 in 10.0 miles NE 4.6 mph - N/A   Clear
8:52 PM 16.0°F 10.9°F 81% 30.43 in 10.0 miles NW 4.6 mph - N/A   Clear
9:52 PM 15.8°F 10.4°F 79% 30.35 in 10.0 miles Calm Calm - N/A   Clear
10:52 PM 15.1°F 10.0°F 80% 30.41 in 10.0 miles Calm Calm - N/A   Partly Cloudy
11:52 PM 17.1°F 12.0°F 81% 30.42 in 10.0 miles North 3.5 mph - N/A   Overcast
Moon Phase
Jan. 12 Jan. 18 Jan. 26 Feb. 03 Feb. 10
Sunrise:07:40 AM (PST) Moon Rise:07:56 AM (PST)1/12
Sunset:04:31 PM (PST) Moon Set:06:14 PM (PST)1/12

Copyright © 2014 The Weather Underground, Inc.